Niagara Falls, NY

9:26 AM EST on February 12, 2016 (GMT -0500)
Niagara Falls International

Weather History for KIAG - March, 2014

Change the Weather History Date:

Saturday, March 29, 2014

  Actual Average Record
Temperature  
Mean Temperature 34 °F -  
Max Temperature 37 °F 44 °F 66 °F (2004)
Min Temperature 30 °F 30 °F 16 °F (2015)
Degree Days  
Heating Degree Days 32    
Moisture  
Dew Point 29 °F    
Average Humidity 83    
Maximum Humidity 92    
Minimum Humidity 75    
Precipitation  
Precipitation 0.11 in - - ()
Snow  
Snow 0.00 in - - ()
Snow Depth 1.00 in    
Sea Level Pressure  
Sea Level Pressure 30.09 in    
Wind  
Wind Speed 12 mph (NE)    
Max Wind Speed 23 mph    
Max Gust Speed 31 mph    
Visibility 6 miles    
Events Fog , Rain , Snow    
Averages and records for this station are not official NWS values.
T = Trace of Precipitation, MM = Missing Value Source: NWS Daily Summary

Daily Weather History Graph

Daily Weather History Graph

Search for Another Location

Airport or City:

Trip Planner

Search our weather history database for the weather conditions in past years. The results will help you decide how hot, cold, wet, or windy it might be!

Date:

Astronomy

Mar. 29, 2014 Rise Set
Actual Time 7:03 AM EDT 7:38 PM EDT
Civil Twilight 6:34 AM EDT 8:07 PM EDT
Nautical Twilight 6:00 AM EDT 8:41 PM EDT
Astronomical Twilight 5:25 AM EDT 9:16 PM EDT
Moon 6:12 AM EDT (3/29) 6:40 PM EDT (3/29)
Length of Visible Light 13h 32m
Length of Day
12h 35m
Waning Crescent, 2% of the Moon is Illuminated
Mar 29
Waning Crescent
Mar 30
New
Apr 7
First Quarter
Apr 15
Full
Apr 22
Last Quarter

Hourly Weather History & Observations

Time (EDT) Temp. Windchill Dew Point Humidity Pressure Visibility Wind Dir Wind Speed Gust Speed Precip Events Conditions
12:53 AM 36.0 °F - 30.0 °F 79% 30.21 in 10.0 mi Calm Calm - N/A   Overcast
1:53 AM 36.0 °F 32.1 °F 30.0 °F 79% 30.21 in 10.0 mi NE 4.6 mph - N/A   Overcast
2:53 AM 35.1 °F 29.3 °F 28.9 °F 78% 30.22 in 10.0 mi NE 6.9 mph - N/A   Overcast
3:53 AM 34.0 °F 31.0 °F 28.0 °F 79% 30.25 in 10.0 mi East 3.5 mph - N/A   Overcast
4:53 AM 34.0 °F 28.8 °F 28.9 °F 82% 30.23 in 10.0 mi NE 5.8 mph - N/A   Overcast
5:53 AM 34.0 °F 26.6 °F 28.0 °F 79% 30.25 in 10.0 mi NE 9.2 mph - N/A   Overcast
6:53 AM 34.0 °F 27.2 °F 27.0 °F 75% 30.23 in 10.0 mi ENE 8.1 mph - N/A   Overcast
7:13 AM 34.0 °F 28.8 °F 27.0 °F 75% 30.21 in 10.0 mi ENE 5.8 mph - N/A   Overcast
8:53 AM 35.1 °F 30.1 °F 28.0 °F 76% 30.23 in 10.0 mi East 5.8 mph - N/A   Overcast
9:53 AM 36.0 °F 29.6 °F 28.9 °F 76% 30.22 in 10.0 mi ESE 8.1 mph - N/A   Overcast
10:53 AM 37.0 °F 29.8 °F 30.0 °F 76% 30.22 in 10.0 mi ENE 10.4 mph - N/A   Overcast
11:53 AM 37.0 °F 28.9 °F 30.9 °F 79% 30.20 in 10.0 mi ENE 12.7 mph - N/A   Overcast
12:18 PM 37.0 °F 28.5 °F 32.0 °F 82% 30.16 in 10.0 mi NE 13.8 mph - N/A   Overcast
12:53 PM 37.0 °F 27.0 °F 30.9 °F 79% 30.18 in 8.0 mi ENE 18.4 mph - N/A   Overcast
1:53 PM 37.0 °F 26.2 °F 30.0 °F 76% 30.14 in 10.0 mi ENE 21.9 mph - N/A   Overcast
2:27 PM 37.0 °F 26.4 °F 30.0 °F 76% 30.07 in 10.0 mi ENE 20.7 mph - N/A   Overcast
2:53 PM 36.0 °F 24.7 °F 28.9 °F 76% 30.10 in 10.0 mi NE 21.9 mph 29.9 mph N/A   Overcast
3:53 PM 35.1 °F 23.8 °F 28.0 °F 76% 30.08 in 9.0 mi NE 20.7 mph 29.9 mph N/A   Overcast
4:27 PM 34.0 °F 22.4 °F 27.0 °F 75% 30.03 in 9.0 mi NE 20.7 mph 31.1 mph 0.00 in   Light Ice Pellets
4:34 PM 34.0 °F 21.8 °F 28.0 °F 79% 30.03 in 9.0 mi ENE 23.0 mph 29.9 mph 0.00 in   Overcast
4:45 PM 34.0 °F 22.7 °F 27.0 °F 75% 30.02 in 9.0 mi ENE 19.6 mph 28.8 mph 0.00 in   Light Ice Pellets
4:53 PM 34.0 °F 21.8 °F 27.0 °F 75% 30.07 in 8.0 mi ENE 23.0 mph - 0.00 in Rain Light Rain
4:58 PM 34.0 °F 24.2 °F 28.0 °F 79% 30.03 in 9.0 mi ENE 15.0 mph - 0.00 in Rain Light Rain
5:07 PM 34.0 °F 22.1 °F 27.0 °F 75% 30.02 in 8.0 mi ENE 21.9 mph 31.1 mph 0.00 in Rain Light Rain
5:38 PM 34.0 °F 22.4 °F 28.0 °F 79% 30.03 in 2.5 mi NE 20.7 mph - 0.00 in Snow Light Snow
5:53 PM 34.0 °F 24.2 °F 28.0 °F 79% 30.07 in 2.5 mi NE 15.0 mph - 0.00 in Snow Light Snow
6:00 PM 33.1 °F 21.5 °F 28.0 °F 82% 30.03 in 1.2 mi NE 19.6 mph 25.3 mph 0.00 in Snow Light Snow
6:09 PM 33.1 °F 21.9 °F 28.0 °F 82% 30.03 in 1.0 mi NE 18.4 mph 25.3 mph 0.00 in Snow Light Snow
6:16 PM 33.1 °F 21.9 °F 28.0 °F 82% 30.03 in 0.8 mi NE 18.4 mph - 0.00 in Snow Light Snow
6:29 PM 32.0 °F 20.5 °F 28.9 °F 88% 30.03 in 0.5 mi NE 18.4 mph - 0.00 in Fog , Snow Snow
6:47 PM 32.0 °F 21.2 °F 28.4 °F 87% 30.03 in 0.5 mi NE 16.1 mph 25.3 mph 0.00 in Fog , Snow Snow
6:53 PM 32.0 °F 20.5 °F 28.9 °F 88% 30.07 in 0.5 mi NE 18.4 mph - 0.00 in Fog , Snow Snow
7:02 PM 32.0 °F 21.2 °F 28.9 °F 88% 30.03 in 0.8 mi NE 16.1 mph - 0.00 in Snow Light Snow
7:20 PM 30.9 °F 18.4 °F 28.9 °F 92% 30.02 in 1.0 mi NE 20.7 mph 28.8 mph 0.00 in Snow Light Snow
7:35 PM 30.9 °F 18.7 °F 28.9 °F 92% 30.02 in 0.8 mi NE 19.6 mph 25.3 mph 0.00 in Snow Light Snow
7:53 PM 30.9 °F 19.1 °F 28.9 °F 92% 30.06 in 0.8 mi NE 18.4 mph 29.9 mph 0.03 in Snow Light Snow
8:13 PM 30.9 °F 18.4 °F 28.9 °F 92% 30.01 in 1.0 mi NE 20.7 mph 31.1 mph 0.00 in Snow Light Snow
8:53 PM 30.9 °F 19.4 °F 28.9 °F 92% 30.06 in 1.0 mi NE 17.3 mph 24.2 mph 0.00 in Snow Light Snow
8:59 PM 30.9 °F 19.8 °F 28.9 °F 92% 30.02 in 1.2 mi NE 16.1 mph 25.3 mph 0.00 in Snow Light Snow
9:28 PM 30.9 °F 19.1 °F 28.9 °F 92% 30.02 in 1.0 mi NNE 18.4 mph 26.5 mph 0.00 in Snow Light Snow
9:53 PM 30.9 °F 19.4 °F 28.9 °F 92% 30.05 in 1.0 mi NNE 17.3 mph 27.6 mph 0.05 in Snow Light Snow
10:30 PM 30.9 °F 18.1 °F 28.9 °F 92% 30.00 in 1.2 mi NNE 21.9 mph - 0.00 in Snow Light Snow
10:53 PM 30.9 °F 18.1 °F 28.9 °F 92% 30.04 in 1.2 mi NNE 21.9 mph 26.5 mph 0.03 in Snow Light Snow
11:00 PM 30.9 °F 18.1 °F 28.9 °F 92% 29.99 in 1.0 mi NE 21.9 mph 29.9 mph 0.00 in Snow Light Snow
11:36 PM 30.9 °F 18.7 °F 28.9 °F 92% 29.98 in 0.8 mi NNE 19.6 mph 27.6 mph 0.00 in Snow Light Snow
11:53 PM 30.9 °F 17.8 °F 28.9 °F 92% 30.01 in 0.8 mi NNE 23.0 mph 31.1 mph 0.00 in Snow Light Snow